Emporia, VA

8:29 AM EST on December 08, 2019 (GMT -0500)
Emporia-Greensville Regional

Weather History for KEMV - October, 2019

Change the Weather History Date:

Thursday, October 31, 2019

  Actual Average Record
Temperature  
Mean Temperature 72 °F -  
Max Temperature 81 °F 67 °F 81 °F (2019)
Min Temperature 58 °F 41 °F 28 °F (1990)
Cooling Degree Days 7    
Growing Degree Days 22 (Base 50)    
Moisture  
Dew Point 68 °F    
Average Humidity 87    
Maximum Humidity 100    
Minimum Humidity 67    
Precipitation  
Precipitation 0.46 in - - ()
Sea Level Pressure  
Sea Level Pressure 29.91 in    
Wind  
Wind Speed 7 mph (SE)    
Max Wind Speed 31 mph    
Max Gust Speed 45 mph    
Visibility 10 miles    
Events Thunderstorm    
Averages and records for this station are not official NWS values.
T = Trace of Precipitation, MM = Missing Value Source: NWS Daily Summary

Daily Weather History Graph

Daily Weather History Graph

Search for Another Location

Airport or City:

Astronomy

Oct. 31, 2019 Rise Set
Actual Time 7:32 AM EDT 6:14 PM EDT
Civil Twilight 7:05 AM EDT 6:40 PM EDT
Nautical Twilight 6:35 AM EDT 7:11 PM EDT
Astronomical Twilight 6:04 AM EDT 7:41 PM EDT
Moon 11:14 AM EDT (10/31) 9:13 PM EDT (10/31)
Length of Visible Light 11h 35m
Length of Day
10h 42m
Waxing Crescent, 15% of the Moon is Illuminated
Oct 31
Waxing Crescent
Nov 4
First Quarter
Nov 12
Full
Nov 19
Last Quarter
Nov 26
New

Hourly Weather History & Observations

Time (EDT) Temp. Heat Index Dew Point Humidity Pressure Visibility Wind Dir Wind Speed Gust Speed Precip Events Conditions
12:15 AM 63.0 °F - 63.0 °F 100% 30.08 in - ESE 6.9 mph - N/A   Unknown
12:35 AM 63.5 °F - 63.5 °F 100% 30.07 in 10.0 mi SE 4.6 mph - N/A   Clear
12:55 AM 63.9 °F - 63.9 °F 100% 30.07 in 10.0 mi SE 4.6 mph - N/A   Scattered Clouds
1:15 AM 64.4 °F - 64.4 °F 100% 30.07 in 10.0 mi Calm Calm - N/A   Scattered Clouds
1:35 AM 64.6 °F - 64.4 °F 99% 30.07 in 10.0 mi Calm Calm - N/A   Mostly Cloudy
1:55 AM 64.6 °F - 64.4 °F 99% 30.06 in 10.0 mi ESE 3.5 mph - N/A   Mostly Cloudy
2:35 AM 64.9 °F - 64.9 °F 100% 30.04 in 10.0 mi Calm Calm - N/A   Scattered Clouds
2:55 AM 65.3 °F - 65.3 °F 100% 30.04 in 10.0 mi SE 3.5 mph - N/A   Scattered Clouds
3:15 AM 65.5 °F - 65.5 °F 100% 30.04 in 10.0 mi SE 3.5 mph - N/A   Scattered Clouds
3:35 AM 65.8 °F - 65.8 °F 100% 30.03 in 10.0 mi SE 3.5 mph - 0.01 in   Mostly Cloudy
3:55 AM 66.0 °F - 66.0 °F 100% 30.02 in 10.0 mi SE 3.5 mph - 0.01 in   Mostly Cloudy
4:15 AM 66.2 °F - 66.2 °F 100% 30.02 in 10.0 mi SE 3.5 mph - N/A   Overcast
4:35 AM 66.2 °F - 66.2 °F 100% 30.01 in 10.0 mi ESE 4.6 mph - N/A   Overcast
4:55 AM 66.4 °F - 66.4 °F 100% 30.01 in 10.0 mi SE 4.6 mph - N/A   Overcast
5:15 AM 66.7 °F - 66.7 °F 100% 30.01 in - SSE 3.5 mph - N/A   Unknown
5:35 AM 67.1 °F - 67.1 °F 100% 30.01 in 10.0 mi SE 3.5 mph - N/A   Overcast
5:55 AM 67.5 °F - 67.3 °F 99% 30.01 in 10.0 mi ESE 5.8 mph - N/A   Overcast
6:15 AM 67.6 °F - 67.3 °F 99% 30.01 in 10.0 mi ESE 4.6 mph - N/A   Overcast
6:35 AM 68.0 °F - 67.3 °F 98% 30.01 in 10.0 mi SE 4.6 mph - N/A   Overcast
6:55 AM 68.0 °F - 67.1 °F 97% 30.00 in 10.0 mi ESE 5.8 mph - N/A   Overcast
7:15 AM 67.6 °F - 67.1 °F 98% 30.00 in 10.0 mi SE 4.6 mph - N/A   Mostly Cloudy
7:35 AM 67.5 °F - 67.1 °F 99% 30.00 in 10.0 mi SSE 3.5 mph - N/A   Mostly Cloudy
7:55 AM 68.0 °F - 67.1 °F 97% 29.99 in 10.0 mi SE 5.8 mph - N/A   Overcast
8:15 AM 68.2 °F - 67.3 °F 97% 29.99 in 10.0 mi SE 5.8 mph - N/A   Mostly Cloudy
8:35 AM 68.9 °F - 67.6 °F 96% 29.99 in 10.0 mi SE 5.8 mph - N/A   Overcast
8:55 AM 69.8 °F - 68.0 °F 94% 29.99 in 10.0 mi SE 6.9 mph - N/A   Scattered Clouds
9:15 AM 70.5 °F - 68.0 °F 92% 30.00 in 10.0 mi SSE 4.6 mph - N/A   Mostly Cloudy
9:35 AM 71.2 °F - 68.4 °F 91% 29.99 in 10.0 mi SE 8.1 mph - N/A   Mostly Cloudy
9:55 AM 72.5 °F - 68.5 °F 87% 29.99 in 10.0 mi SE 8.1 mph - N/A   Scattered Clouds
10:15 AM 74.1 °F - 69.1 °F 84% 29.98 in - SSE 11.5 mph 17.3 mph N/A   Scattered Clouds
10:35 AM 74.3 °F - 68.7 °F 83% 29.98 in 10.0 mi SSE 13.8 mph 19.6 mph N/A   Mostly Cloudy
10:55 AM 74.8 °F - 68.9 °F 82% 29.98 in 10.0 mi SSE 6.9 mph - N/A   Mostly Cloudy
11:15 AM 75.6 °F - 69.1 °F 80% 29.97 in 10.0 mi SSE 10.4 mph - N/A   Mostly Cloudy
11:35 AM 76.1 °F - 69.4 °F 80% 29.96 in 10.0 mi SSE 10.4 mph - N/A   Overcast
11:55 AM 77.4 °F - 69.4 °F 76% 29.95 in 10.0 mi SE 10.4 mph - N/A   Mostly Cloudy
12:15 PM 77.5 °F - 68.9 °F 75% 29.94 in 10.0 mi South 11.5 mph 27.6 mph N/A   Overcast
12:35 PM 77.0 °F - 69.1 °F 76% 29.93 in 10.0 mi SE 8.1 mph - N/A   Overcast
12:55 PM 79.2 °F - 70.0 °F 73% 29.91 in 10.0 mi SE 12.7 mph 21.9 mph N/A   Overcast
1:15 PM 80.1 °F 83.2 °F 69.8 °F 71% 29.89 in 10.0 mi SE 12.7 mph 20.7 mph N/A   Overcast
2:55 PM 79.9 °F - 69.8 °F 71% 29.83 in 10.0 mi SSE 13.8 mph 19.6 mph N/A   Mostly Cloudy
3:35 PM 81.5 °F 84.9 °F 69.8 °F 67% 29.81 in 10.0 mi SSE 10.4 mph 20.7 mph N/A   Scattered Clouds
3:55 PM 81.5 °F 84.9 °F 69.8 °F 67% 29.80 in 10.0 mi SSE 12.7 mph 21.9 mph N/A   Scattered Clouds
4:15 PM 81.3 °F 84.8 °F 69.8 °F 68% 29.79 in 10.0 mi SE 15.0 mph 20.7 mph N/A   Scattered Clouds
4:35 PM 81.3 °F 84.8 °F 69.8 °F 68% 29.79 in 10.0 mi SE 16.1 mph 24.2 mph N/A   Scattered Clouds
4:55 PM 80.2 °F 83.2 °F 69.4 °F 69% 29.79 in 10.0 mi SSE 12.7 mph 23.0 mph N/A   Mostly Cloudy
5:15 PM 80.1 °F 83.0 °F 69.4 °F 70% 29.78 in 10.0 mi SSE 11.5 mph 20.7 mph N/A   Overcast
5:35 PM 79.3 °F - 69.4 °F 72% 29.78 in 10.0 mi SSE 12.7 mph 31.1 mph N/A   Overcast
5:55 PM 79.0 °F - 69.6 °F 73% 29.77 in 10.0 mi SE 13.8 mph 23.0 mph N/A   Overcast
6:15 PM 78.4 °F - 69.4 °F 74% 29.76 in - SE 12.7 mph 21.9 mph N/A   Mostly Cloudy
6:35 PM 77.7 °F - 69.4 °F 76% 29.76 in 10.0 mi SE 11.5 mph 17.3 mph N/A   Scattered Clouds
6:55 PM 77.9 °F - 69.1 °F 74% 29.75 in 10.0 mi SE 16.1 mph 21.9 mph N/A   Mostly Cloudy
7:15 PM 77.4 °F - 68.9 °F 75% 29.75 in 10.0 mi SE 17.3 mph 26.5 mph N/A   Scattered Clouds
7:35 PM 77.4 °F - 68.9 °F 75% 29.75 in 10.0 mi SE 16.1 mph 23.0 mph N/A   Mostly Cloudy
7:55 PM 77.2 °F - 69.1 °F 76% 29.74 in 10.0 mi SSE 15.0 mph 24.2 mph N/A   Overcast
8:15 PM 77.0 °F - 69.1 °F 76% 29.75 in - SSE 15.0 mph 19.6 mph N/A   Overcast
8:35 PM 76.8 °F - 69.1 °F 77% 29.74 in 10.0 mi SSE 15.0 mph 24.2 mph N/A   Overcast
8:55 PM 76.5 °F - 69.1 °F 78% 29.74 in - SSE 11.5 mph 23.0 mph N/A   Overcast
9:55 PM 75.6 °F - 69.8 °F 82% 29.76 in 10.0 mi SSE 12.7 mph 19.6 mph N/A Thunderstorm Thunderstorm
10:15 PM 74.3 °F - 70.2 °F 87% 29.75 in 10.0 mi SSE 9.2 mph - N/A   Overcast
10:35 PM 72.5 °F - 70.9 °F 95% 29.73 in 5.0 mi SE 12.7 mph 19.6 mph 0.06 in Thunderstorm Thunderstorm
10:55 PM 72.5 °F - 70.9 °F 95% 29.75 in 7.0 mi SSE 10.4 mph 19.6 mph 0.10 in   Overcast
11:15 PM 72.0 °F - 70.7 °F 96% 29.72 in 7.0 mi SSE 10.4 mph 17.3 mph 0.01 in   Overcast
11:35 PM 72.1 °F - 70.7 °F 95% 29.78 in 5.0 mi West 31.1 mph 44.9 mph 0.05 in Thunderstorm Overcast
11:55 PM 58.8 °F - 57.9 °F 97% 29.82 in - West 21.9 mph 29.9 mph 0.35 in   Unknown